Weather History for Elkins, WV

Change the Weather History Date:

Monday, January 21, 2013

  Actual Average Record
Temperature  
Mean Temperature 26 °F 29 °F  
Max Temperature 36 °F 39 °F 72 °F (1906)
Min Temperature 15 °F 19 °F -23 °F (1984)
Degree Days  
Heating Degree Days 39 36  
Month to date heating degree days 619 756  
Since 1 July heating degree days 2881 3047  
Cooling Degree Days 0 0  
Month to date cooling degree days 0 0  
Year to date cooling degree days 0 0  
Moisture  
Dew Point 10 °F    
Average Humidity 54    
Maximum Humidity 80    
Minimum Humidity 27    
Precipitation  
Precipitation T in 0.10 in 1.76 in (1999)
Month to date precipitation 1.99 2.19  
Year to date precipitation 1.99 2.19  
Snow  
Snow 0.20 in - - ()
Month to date snowfall 0.9  
Since 1 September snowfall 28.4  
Snow Depth 0.00 in    
Sea Level Pressure  
Sea Level Pressure 30.01 in    
Wind  
Wind Speed 8 mph (West)    
Max Wind Speed 24 mph    
Max Gust Speed 35 mph    
Visibility 8 miles    
Events Snow    
T = Trace of Precipitation, MM = Missing Value Source: NWS Daily Summary

Daily Weather History Graph

Daily Weather History Graph

Search for Another Location

Airport:

Trip Planner

Search our weather history database for the weather conditions in past years. The results will help you decide how hot, cold, wet, or windy it might be!

Date:

Astronomy

Jan. 21, 2013 Rise Set
Actual Time 7:33 AM EST 5:28 PM EST
Civil Twilight 7:04 AM EST 5:57 PM EST
Nautical Twilight 6:32 AM EST 6:29 PM EST
Astronomical Twilight 6:00 AM EST 7:01 PM EST
Moon 1:07 PM EST (1/21) 3:00 AM EST (1/21)
Length of Visible Light 10h 52m
Length of Day
9h 54m
Waxing Gibbous, 75% of the Moon is Illuminated
Jan 21
Waxing Gibbous
Jan 26
Full
Feb 3
Last Quarter
Feb 10
New
Feb 17
First Quarter

Hourly Weather History & Observations

Time (EST) Temp. Windchill Dew Point Humidity Pressure Visibility Wind Dir Wind Speed Gust Speed Precip Events Conditions
12:51 AM 21.9 °F - 10.0 °F 60% 30.12 in 10.0 mi Calm Calm - N/A   Partly Cloudy
1:51 AM 21.9 °F - 10.9 °F 63% 30.12 in 10.0 mi Calm Calm - N/A   Clear
2:51 AM 19.0 °F - 10.9 °F 71% 30.12 in 10.0 mi Calm Calm - N/A   Clear
3:51 AM 18.0 °F - 12.0 °F 78% 30.10 in 10.0 mi Calm Calm - N/A   Clear
4:51 AM 18.0 °F - 12.0 °F 78% 30.09 in 10.0 mi Calm Calm - N/A   Mostly Cloudy
5:51 AM 19.9 °F - 14.0 °F 78% 30.09 in 10.0 mi Calm Calm - N/A   Mostly Cloudy
6:51 AM 23.0 °F - 15.1 °F 72% 30.07 in 10.0 mi Calm Calm - N/A   Overcast
7:51 AM 24.1 °F - 14.0 °F 65% 30.06 in 10.0 mi Calm Calm - N/A   Overcast
8:51 AM 26.1 °F - 16.0 °F 66% 30.06 in 10.0 mi Calm Calm - N/A   Overcast
9:51 AM 30.9 °F 20.7 °F 10.0 °F 42% 30.05 in 10.0 mi SW 13.8 mph 18.4 mph N/A   Overcast
10:51 AM 30.9 °F 22.8 °F 8.1 °F 38% 30.03 in 10.0 mi SW 9.2 mph - N/A   Overcast
11:51 AM 32.0 °F 23.0 °F 7.0 °F 35% 30.00 in 10.0 mi SW 11.5 mph - N/A   Overcast
12:51 PM 34.0 °F 24.2 °F 3.0 °F 27% 29.94 in 10.0 mi WSW 15.0 mph 23.0 mph N/A   Mostly Cloudy
1:51 PM 35.1 °F 25.9 °F 5.0 °F 28% 29.91 in 10.0 mi WSW 13.8 mph 26.5 mph N/A   Clear
2:08 PM 35.6 °F 25.2 °F 5.0 °F 28% 29.83 in 10.0 mi WSW 18.4 mph 29.9 mph N/A   Clear
2:51 PM 34.0 °F 23.4 °F 8.1 °F 34% 29.92 in 10.0 mi West 17.3 mph 28.8 mph N/A   Clear
3:51 PM 32.0 °F 20.5 °F 8.1 °F 37% 29.95 in 10.0 mi West 18.4 mph 28.8 mph N/A   Scattered Clouds
4:51 PM 28.0 °F 17.5 °F 12.9 °F 53% 29.98 in 10.0 mi NW 12.7 mph 19.6 mph N/A   Overcast
5:51 PM 27.0 °F 15.2 °F 12.9 °F 56% 29.99 in 10.0 mi WNW 15.0 mph 21.9 mph N/A   Overcast
6:51 PM 25.0 °F 16.3 °F 10.0 °F 53% 30.01 in 10.0 mi West 8.1 mph - N/A   Overcast
7:51 PM 24.1 °F 11.5 °F 10.0 °F 55% 30.01 in 10.0 mi West 15.0 mph 23.0 mph N/A   Overcast
8:36 PM 21.2 °F 6.4 °F 12.2 °F 68% 29.92 in 7.0 mi WNW 18.4 mph 25.3 mph 0.00 in Snow Light Snow
8:51 PM 21.0 °F 10.6 °F 12.9 °F 71% 30.02 in 5.0 mi WNW 9.2 mph 21.9 mph 0.00 in Snow Light Snow
9:42 PM 19.4 °F 5.0 °F 12.2 °F 74% 29.95 in 1.8 mi WNW 16.1 mph 24.2 mph 0.00 in Snow Light Snow
9:51 PM 19.0 °F 4.5 °F 10.9 °F 71% 30.04 in 1.8 mi WNW 16.1 mph 29.9 mph 0.00 in Snow Light Snow
9:58 PM 19.4 °F 7.2 °F 10.4 °F 68% 29.95 in 2.5 mi West 11.5 mph 19.6 mph 0.00 in Snow Light Snow
10:26 PM 17.6 °F 2.2 °F 10.4 °F 73% 29.96 in 1.2 mi NW 17.3 mph 27.6 mph 0.00 in Snow Light Snow
10:51 PM 16.0 °F 1.7 °F 8.1 °F 71% 30.06 in 2.5 mi WNW 13.8 mph 24.2 mph 0.00 in Snow Light Snow
10:59 PM 15.8 °F -0.2 °F 6.8 °F 68% 29.97 in 4.0 mi WNW 17.3 mph 25.3 mph 0.00 in Snow Light Snow
11:20 PM 15.8 °F 0.3 °F 5.0 °F 62% 29.97 in 9.0 mi West 16.1 mph 24.2 mph 0.00 in   Overcast
11:51 PM 15.1 °F 1.1 °F 3.0 °F 59% 30.07 in 10.0 mi West 12.7 mph 26.5 mph 0.00 in   Overcast